Time,TemperatureF,DewpointF,PressureIn,WindDirection,WindDirectionDegrees,WindSpeedMPH,WindSpeedGustMPH,Humidity,HourlyPrecipIn,Conditions,Clouds,dailyrainin,SoftwareType,DateUTC
2013-01-06 13:02:00,48.0,45.0,30.11,NNW,327,2.0,6.0,88,0.00,,,0.46,,2013-01-06 21:02:00,
2013-01-06 13:12:00,48.0,45.0,30.11,NNW,327,2.0,6.0,88,0.00,,,0.46,,2013-01-06 21:12:00,
2013-01-06 13:33:00,49.0,43.0,30.11,NW,316,0.0,3.0,80,0.00,,,0.46,,2013-01-06 21:33:00,
2013-01-06 13:42:00,49.0,43.0,30.11,NW,316,0.0,3.0,80,0.00,,,0.46,,2013-01-06 21:42:00,
2013-01-06 13:52:00,51.0,45.0,30.10,South,170,1.0,3.0,81,0.00,,,0.46,,2013-01-06 21:52:00,
2013-01-06 14:02:00,51.0,45.0,30.10,SSE,163,0.0,2.0,81,0.00,,,0.46,,2013-01-06 22:02:00,
2013-01-06 14:12:00,51.0,45.0,30.10,SSE,163,0.0,2.0,81,0.00,,,0.46,,2013-01-06 22:12:00,
2013-01-06 14:22:00,50.0,43.0,30.10,West,262,0.0,1.0,77,0.00,,,0.46,,2013-01-06 22:22:00,
2013-01-06 14:32:00,50.0,44.0,30.10,West,262,0.0,1.0,79,0.00,,,0.46,,2013-01-06 22:32:00,
2013-01-06 14:43:00,50.0,44.0,30.10,West,262,0.0,1.0,79,0.00,,,0.46,,2013-01-06 22:43:00,
2013-01-06 14:52:00,50.0,44.0,30.10,WSW,251,1.0,3.0,79,0.00,,,0.46,,2013-01-06 22:52:00,
2013-01-06 15:02:00,50.0,45.0,30.10,WSW,252,0.0,1.0,83,0.00,,,0.46,,2013-01-06 23:02:00,
2013-01-06 15:12:00,50.0,45.0,30.10,WSW,252,0.0,1.0,83,0.00,,,0.46,,2013-01-06 23:12:00,
2013-01-06 15:22:00,50.0,46.0,30.10,WSW,252,0.0,1.0,86,0.00,,,0.46,,2013-01-06 23:22:00,
2013-01-06 15:32:00,49.0,46.0,30.11,WSW,251,0.0,0.0,88,0.00,,,0.36,,2013-01-06 23:32:00,
2013-01-06 15:42:00,49.0,46.0,30.11,WSW,251,0.0,0.0,88,0.00,,,0.36,,2013-01-06 23:42:00,
2013-01-06 15:52:00,49.0,45.0,30.11,WSW,251,0.0,0.0,85,0.00,,,0.36,,2013-01-06 23:52:00,
2013-01-06 16:02:00,49.0,45.0,30.11,WSW,252,0.0,1.0,85,0.00,,,0.36,,2013-01-07 00:02:00,
2013-01-06 16:12:00,49.0,45.0,30.11,WSW,252,0.0,1.0,85,0.00,,,0.36,,2013-01-07 00:12:00,
2013-01-06 16:22:00,49.0,45.0,30.11,WSW,252,0.0,0.0,87,0.00,,,0.36,,2013-01-07 00:22:00,
2013-01-06 16:32:00,49.0,46.0,30.11,WSW,251,0.0,1.0,89,0.00,,,0.25,,2013-01-07 00:32:00,
2013-01-06 16:42:00,49.0,46.0,30.11,WSW,251,0.0,1.0,89,0.00,,,0.25,,2013-01-07 00:42:00,
2013-01-06 16:52:00,48.0,45.0,30.11,WSW,252,0.0,0.0,90,0.00,,,0.25,,2013-01-07 00:52:00,
2013-01-06 17:02:00,47.0,45.0,30.11,WSW,252,0.0,1.0,91,0.00,,,0.25,,2013-01-07 01:02:00,
2013-01-06 17:12:00,47.0,45.0,30.11,WSW,252,0.0,1.0,91,0.00,,,0.25,,2013-01-07 01:12:00,
2013-01-06 17:22:00,46.0,44.0,30.11,WSW,252,0.0,0.0,93,0.00,,,0.25,,2013-01-07 01:22:00,
2013-01-06 17:32:00,45.0,43.0,30.11,WSW,252,0.0,0.0,92,0.00,,,0.17,,2013-01-07 01:32:00,
2013-01-06 17:42:00,45.0,43.0,30.11,WSW,252,0.0,0.0,92,0.00,,,0.17,,2013-01-07 01:42:00,
2013-01-06 17:52:00,44.0,42.0,30.10,WSW,251,0.0,1.0,93,0.00,,,0.17,,2013-01-07 01:52:00,
2013-01-06 18:02:00,43.0,42.0,30.10,ESE,121,0.0,2.0,95,0.00,,,0.17,,2013-01-07 02:02:00,
2013-01-06 18:12:00,43.0,42.0,30.10,ESE,121,0.0,2.0,95,0.00,,,0.17,,2013-01-07 02:12:00,
2013-01-06 18:22:00,42.0,40.0,30.11,ESE,121,0.0,1.0,94,0.00,,,0.17,,2013-01-07 02:22:00,
2013-01-06 18:32:00,41.0,40.0,30.11,ESE,121,0.0,0.0,95,0.00,,,0.14,,2013-01-07 02:32:00,
2013-01-06 18:42:00,41.0,40.0,30.11,ESE,121,0.0,0.0,95,0.00,,,0.14,,2013-01-07 02:42:00,
2013-01-06 18:52:00,41.0,40.0,30.11,ESE,121,0.0,1.0,95,0.00,,,0.14,,2013-01-07 02:52:00,
2013-01-06 19:02:00,40.0,39.0,30.12,ESE,121,0.0,1.0,96,0.00,,,0.14,,2013-01-07 03:02:00,
2013-01-06 19:12:00,40.0,39.0,30.12,ESE,121,0.0,1.0,96,0.00,,,0.14,,2013-01-07 03:12:00,
2013-01-06 19:22:00,40.0,39.0,30.12,ESE,121,0.0,1.0,96,0.00,,,0.14,,2013-01-07 03:22:00,
2013-01-06 19:32:00,39.0,38.0,30.13,ESE,121,0.0,0.0,96,0.00,,,0.11,,2013-01-07 03:32:00,
2013-01-06 19:42:00,39.0,38.0,30.13,ESE,121,0.0,0.0,96,0.00,,,0.11,,2013-01-07 03:42:00,
2013-01-06 19:52:00,38.0,37.0,30.14,ESE,121,0.0,0.0,96,0.00,,,0.11,,2013-01-07 03:52:00,
2013-01-06 20:02:00,38.0,37.0,30.14,ESE,121,0.0,0.0,96,0.00,,,0.11,,2013-01-07 04:02:00,
2013-01-06 20:12:00,38.0,37.0,30.14,ESE,121,0.0,0.0,96,0.00,,,0.11,,2013-01-07 04:12:00,